Buzzards Bay, MA

5:37 AM EST on February 26, 2017 (GMT -0500)
Cape Cod Coast Guard Air Station

Weather History for KFMH - July, 2013

Change the Weather History Date:

Tuesday, July 2, 2013

  Actual Average Record
Temperature  
Mean Temperature 71 °F -  
Max Temperature 77 °F 76 °F 87 °F (2005)
Min Temperature 65 °F 60 °F 50 °F (2007)
Cooling Degree Days 6    
Growing Degree Days 21 (Base 50)    
Moisture  
Dew Point 71 °F    
Average Humidity 93    
Maximum Humidity 100    
Minimum Humidity 83    
Precipitation  
Precipitation 0.01 in - - ()
Sea Level Pressure  
Sea Level Pressure 30.18 in    
Wind  
Wind Speed 13 mph (SW)    
Max Wind Speed 21 mph    
Max Gust Speed 28 mph    
Visibility 8 miles    
Events Rain    
Averages and records for this station are not official NWS values.
T = Trace of Precipitation, MM = Missing Value Source: NWS Daily Summary

Daily Weather History Graph

Daily Weather History Graph

Search for Another Location

Airport or City:

Trip Planner

Search our weather history database for the weather conditions in past years. The results will help you decide how hot, cold, wet, or windy it might be!

Date:

Astronomy

Jul. 02, 2013 Rise Set
Actual Time 5:12 AM EDT 8:20 PM EDT
Civil Twilight 4:38 AM EDT 8:53 PM EDT
Nautical Twilight 3:54 AM EDT 9:37 PM EDT
Astronomical Twilight 3:02 AM EDT 10:29 PM EDT
Moon 1:15 AM EDT (7/2) 3:29 PM EDT (7/2)
Length of Visible Light 16h 15m
Length of Day
15h 08m
Waning Crescent, 26% of the Moon is Illuminated
Jul 2
Waning Crescent
Jul 8
New
Jul 15
First Quarter
Jul 22
Full
Jul 29
Last Quarter

Hourly Weather History & Observations

Time (EDT) Temp. Dew Point Humidity Pressure Visibility Wind Dir Wind Speed Gust Speed Precip Events Conditions
12:15 AM 71.6 °F 68.0 °F 88% 30.13 in 9.0 mi SSW 11.5 mph - N/A   Overcast
12:35 AM 69.8 °F 68.0 °F 94% 30.13 in 8.0 mi SSW 11.5 mph - N/A   Overcast
12:55 AM 69.8 °F 68.0 °F 94% 30.13 in 8.0 mi SSW 11.5 mph - N/A   Overcast
1:15 AM 69.8 °F 68.0 °F 94% 30.13 in 8.0 mi SSW 11.5 mph - N/A   Overcast
1:35 AM 71.6 °F 68.0 °F 88% 30.14 in 9.0 mi SSW 10.4 mph - N/A   Overcast
1:55 AM 71.6 °F 68.0 °F 88% 30.13 in 9.0 mi SW 12.7 mph - N/A   Overcast
2:15 AM 71.6 °F 69.8 °F 94% 30.13 in 9.0 mi SW 13.8 mph 18.4 mph N/A   Overcast
2:35 AM 71.6 °F 69.8 °F 94% 30.13 in 9.0 mi SW 13.8 mph - N/A   Overcast
2:55 AM 71.6 °F 71.6 °F 100% 30.13 in 8.0 mi SW 13.8 mph 20.7 mph N/A   Overcast
3:15 AM 73.4 °F 71.6 °F 94% 30.13 in 10.0 mi SW 15.0 mph 23.0 mph N/A   Overcast
3:35 AM 73.4 °F 71.6 °F 94% 30.13 in 9.0 mi SW 13.8 mph 26.5 mph N/A   Overcast
3:55 AM 73.4 °F 71.6 °F 94% 30.14 in 8.0 mi SW 12.7 mph - N/A   Overcast
4:35 AM 73.4 °F 71.6 °F 94% 30.14 in 8.0 mi SW 13.8 mph 20.7 mph N/A   Overcast
4:55 AM 73.4 °F 71.6 °F 94% 30.15 in 8.0 mi SW 13.8 mph 23.0 mph N/A   Overcast
5:15 AM 73.4 °F 71.6 °F 94% 30.15 in 8.0 mi SW 13.8 mph - N/A   Overcast
5:35 AM 73.4 °F 71.6 °F 94% 30.16 in 7.0 mi SW 12.7 mph 19.6 mph N/A   Overcast
5:55 AM 73.4 °F 71.6 °F 94% 30.16 in 7.0 mi SW 12.7 mph - N/A   Overcast
6:15 AM 73.4 °F 71.6 °F 94% 30.17 in 6.0 mi SW 13.8 mph 19.6 mph N/A   Overcast
6:35 AM 73.4 °F 71.6 °F 94% 30.18 in 6.0 mi SW 19.6 mph 25.3 mph N/A   Overcast
6:55 AM 71.6 °F 71.6 °F 100% 30.18 in 5.0 mi SW 19.6 mph 26.5 mph N/A   Overcast
7:15 AM 71.6 °F 71.6 °F 100% 30.18 in 4.0 mi SW 13.8 mph 21.9 mph N/A Rain Light Rain
7:35 AM 71.6 °F 69.8 °F 94% 30.18 in 5.0 mi WSW 11.5 mph - 0.01 in Rain Light Rain
7:55 AM 71.6 °F 71.6 °F 100% 30.18 in 10.0 mi SW 10.4 mph - 0.01 in   Scattered Clouds
8:15 AM 73.4 °F 71.6 °F 94% 30.18 in 10.0 mi SSW 12.7 mph - N/A   Mostly Cloudy
8:35 AM 73.4 °F 71.6 °F 94% 30.18 in 8.0 mi SSW 13.8 mph 18.4 mph N/A   Overcast
8:55 AM 73.4 °F 73.4 °F 100% 30.18 in 6.0 mi SSW 15.0 mph - N/A   Overcast
9:15 AM 73.4 °F 73.4 °F 100% 30.18 in 6.0 mi SW 11.5 mph 21.9 mph N/A   Overcast
9:35 AM 73.4 °F 71.6 °F 94% 30.18 in 6.0 mi SSW 15.0 mph 19.6 mph N/A   Overcast
10:15 AM 77.0 °F 73.4 °F 89% 30.19 in 9.0 mi SW 18.4 mph 21.9 mph N/A   Mostly Cloudy
10:35 AM 77.0 °F 73.4 °F 89% 30.19 in 9.0 mi SW 16.1 mph - N/A   Overcast
10:55 AM 77.0 °F 73.4 °F 89% 30.19 in 8.0 mi SW 13.8 mph 24.2 mph N/A   Overcast
11:15 AM 77.0 °F 73.4 °F 89% 30.19 in 8.0 mi SW 13.8 mph 21.9 mph N/A   Overcast
11:35 AM 77.0 °F 71.6 °F 83% 30.19 in 10.0 mi North - - N/A   Overcast
12:55 PM 77.0 °F 71.6 °F 83% 30.19 in 9.0 mi WSW 20.7 mph 27.6 mph N/A   Overcast
1:15 PM 75.2 °F 71.6 °F 89% 30.20 in 7.0 mi WSW 12.7 mph 23.0 mph N/A   Overcast
1:35 PM 75.2 °F 71.6 °F 89% 30.20 in 8.0 mi WSW 17.3 mph 23.0 mph N/A   Overcast
1:55 PM 77.0 °F 73.4 °F 89% 30.19 in 10.0 mi WSW 17.3 mph 25.3 mph N/A   Unknown
2:15 PM 75.2 °F 71.6 °F 89% 30.20 in 9.0 mi WSW 13.8 mph 25.3 mph N/A   Mostly Cloudy
2:35 PM 75.2 °F 71.6 °F 89% 30.19 in 8.0 mi WSW 16.1 mph - N/A   Overcast
2:55 PM 75.2 °F 71.6 °F 89% 30.19 in 8.0 mi WSW 13.8 mph - N/A   Overcast
3:15 PM 75.2 °F 71.6 °F 89% 30.19 in 8.0 mi WSW 13.8 mph - N/A   Overcast
3:35 PM 73.4 °F 71.6 °F 94% 30.18 in 8.0 mi WSW 11.5 mph - N/A   Overcast
3:55 PM 75.2 °F 71.6 °F 89% 30.17 in 9.0 mi SW 13.8 mph - N/A   Overcast
4:15 PM 75.2 °F 71.6 °F 89% 30.17 in 8.0 mi SW 11.5 mph 17.3 mph N/A   Overcast
4:35 PM 75.2 °F 71.6 °F 89% 30.17 in 9.0 mi SW 12.7 mph - N/A   Overcast
4:55 PM 75.2 °F 71.6 °F 89% 30.17 in 9.0 mi SW 12.7 mph - N/A   Overcast
5:15 PM 73.4 °F 71.6 °F 94% 30.17 in 8.0 mi SW 11.5 mph - N/A   Overcast
5:35 PM 73.4 °F 71.6 °F 94% 30.18 in 8.0 mi WSW 16.1 mph 23.0 mph N/A   Overcast
5:55 PM 73.4 °F 71.6 °F 94% 30.19 in 5.0 mi SW 12.7 mph 19.6 mph N/A   Overcast
6:15 PM 73.4 °F 71.6 °F 94% 30.19 in 8.0 mi SW 11.5 mph 17.3 mph N/A   Overcast
6:35 PM 73.4 °F 71.6 °F 94% 30.19 in 8.0 mi WSW 10.4 mph - N/A   Overcast
6:55 PM 73.4 °F 71.6 °F 94% 30.20 in 8.0 mi SW 11.5 mph - N/A   Overcast
7:15 PM 71.6 °F 69.8 °F 94% 30.21 in 7.0 mi SW 15.0 mph - N/A   Overcast
7:35 PM 71.6 °F 69.8 °F 94% 30.21 in 7.0 mi SW 12.7 mph - N/A   Overcast
7:55 PM 71.6 °F 69.8 °F 94% 30.21 in 7.0 mi SW 12.7 mph 19.6 mph N/A   Overcast
8:15 PM 71.6 °F 69.8 °F 94% 30.21 in 7.0 mi SW 12.7 mph 16.1 mph N/A   Overcast
8:35 PM 71.6 °F 69.8 °F 94% 30.21 in 10.0 mi SW 11.5 mph - N/A   Overcast
9:15 PM 71.6 °F 69.8 °F 94% 30.22 in 10.0 mi SW 10.4 mph - N/A   Overcast
9:35 PM 71.6 °F 69.8 °F 94% 30.23 in 10.0 mi SW 11.5 mph - N/A   Overcast
9:55 PM 71.6 °F 69.8 °F 94% 30.23 in 10.0 mi SW 10.4 mph - N/A   Overcast
10:15 PM 71.6 °F 69.8 °F 94% 30.23 in 10.0 mi SW 13.8 mph - N/A   Overcast
10:35 PM 71.6 °F 69.8 °F 94% 30.23 in 10.0 mi SW 15.0 mph 19.6 mph N/A   Overcast
10:55 PM 71.6 °F 69.8 °F 94% 30.22 in 10.0 mi SW 12.7 mph 21.9 mph N/A   Overcast
11:15 PM 71.6 °F 69.8 °F 94% 30.22 in 9.0 mi SW 13.8 mph - N/A   Overcast
11:35 PM 71.6 °F 69.8 °F 94% 30.21 in 8.0 mi SW 12.7 mph 21.9 mph N/A   Overcast
11:55 PM 71.6 °F 69.8 °F 94% 30.21 in 8.0 mi SW 15.0 mph 25.3 mph N/A   Overcast